Back to catalog

FENGYUN 1C DEB

AlivePO
NORAD 36163·DEBRIS·🇨🇳 China

Launched May 10, 1999 from Taiyuan Satellite Launch Center

Loading…

Next Passes (next 24 hours)

TLE

FreshSource: Space-Track

Epoch: Sep 13, 2026, 22:11 UTC

1 36163U 99025DSL 26256.92468889  .00010159  00000-0  17875-2 0  9995
2 36163  99.0740 133.8186 0033770 318.2764  41.5862 14.67454725932130

Track FENGYUN 1C DEB in real time with AllMySat

Download on the App Store